Zurück zum Katalog

STARLINK-32107

AktivKommunikationVLEO
NORAD 59694·PAYLOAD·🇺🇸 United States

Gestartet May 8, 2024 von Cape Canaveral Space Force Station

Loading…

Nächste Überflüge (nächste 24 Stunden)

TLE

AktuellSource: CelesTrak SupGP

Epoche: Sep 14, 2026, 22:31 UTC

1 59694C 24086N   26257.93868056  .00052566  00000+0  19038-2 0  2573
2 59694  43.0039  71.3757 0001614 275.0692  37.9452 15.27554240    13

Verfolge STARLINK-32107 in Echtzeit mit AllMySat

Download on the App Store